This is the latest recevied weather packets stored in our database for station/object K9MWD. If no packets are shown the sender has not sent any weather packets the latest 10 day(s).
| Time | Temp. | Humidity | Pressure | Rain* | Wind** | Luminosity | Snow |
|---|---|---|---|---|---|---|---|
| 1788353889 | 26.67° C | 74% | 1016 hPa | 0 mm | - | 78 W/m² | - |
| 1788353586 | 26.11° C | 75% | 1016.1 hPa | 0 mm | - | 68 W/m² | - |
| 1788353282 | 26.11° C | 75% | 1015.9 hPa | 0 mm | - | 57 W/m² | - |
| 1788352978 | 25.56° C | 76% | 1015.8 hPa | 0 mm | - | 48 W/m² | - |
| 1788352678 | 25.56° C | 77% | 1015.9 hPa | 0 mm | - | 39 W/m² | - |
| 1788352374 | 25° C | 78% | 1015.9 hPa | 0 mm | - | 31 W/m² | - |
| 1788352073 | 25° C | 79% | 1015.9 hPa | 0 mm | - | 25 W/m² | - |
| 1788351788 | 24.44° C | 79% | 1015.6 hPa | 0 mm | - | 20 W/m² | - |
| 1788351468 | 24.44° C | 79% | 1015.7 hPa | 0 mm | - | 15 W/m² | - |
| 1788351163 | 24.44° C | 80% | 1015.7 hPa | 0 mm | - | 11 W/m² | - |
| 1788350859 | 24.44° C | 80% | 1015.6 hPa | 0 mm | - | 7 W/m² | - |
| 1788350556 | 24.44° C | 79% | 1015.4 hPa | 0 mm | - | 4 W/m² | - |
| 1788350256 | 24.44° C | 79% | 1015.7 hPa | 0 mm | - | 2 W/m² | - |
| 1788349952 | 24.44° C | 79% | 1015.5 hPa | 0 mm | - | 1 W/m² | - |
| 1788349647 | 24.44° C | 79% | 1015.6 hPa | 0 mm | - | 0 W/m² | - |
| 1788349344 | 24.44° C | 79% | 1015.5 hPa | 0 mm | - | 0 W/m² | - |
| 1788349044 | 24.44° C | 79% | 1015.5 hPa | 0 mm | - | 0 W/m² | - |
| 1788348739 | 24.44° C | 79% | 1015.4 hPa | 0 mm | - | 0 W/m² | - |
| 1788348438 | 24.44° C | 79% | 1015.5 hPa | 0 mm | - | 0 W/m² | - |
| 1788348136 | 25° C | 79% | 1015.7 hPa | 0 mm | - | 0 W/m² | - |
| 1788347831 | 25° C | 78% | 1015.7 hPa | 0 mm | - | 0 W/m² | - |
| 1788347527 | 25° C | 78% | 1015.6 hPa | 0 mm | - | 0 W/m² | - |
| 1788347222 | 25° C | 78% | 1015.7 hPa | 0 mm | - | 0 W/m² | - |
| 1788346918 | 25° C | 78% | 1015.8 hPa | 0 mm | - | 0 W/m² | - |
| 1788346618 | 25° C | 79% | 1015.5 hPa | 0 mm | - | 0 W/m² | - |
* Rain latest hour (hover to see other rain measurements)
** Current wind speed in m/s (hover to see current wind gust speed)